Showing default

QIANFAN-64, 62794

Orbit data source: Space-Track

QIANFAN-64, 62794 is a Chinese payload satellite in LEO that was launched on Thu, 23 Jan 2025 UTC via a CHANG ZHENG 6A launch vehicle from the Taiyaun Space Center, China (TSC). Payload-class satellites include a variety of spacecraft equipped with specific instruments for various scientific and technological missions. These include communications satellites like Starlink; space stations such as the ISS; scientific satellites like the Hubble; Earth observation satellites from companies like Planet Labs, Umbra, and HawkEye 360; GPS; miniature CubeSats for education and research; and military/defense satellites.

Loading next visibility...
Identifier
62794, 2025-016K
Orbit
LEO
Last TLE update
13 hours ago
Origin
Manufacturer
SECM
Mission
Operational Commercial Communications
Bus & Motor
QIANFAN, Unknown motor
Mass
267 kg wet, ~267 kg dry
Launch date (UTC)
2025-01-23 (5 months ago)
Launch vehicle
CHANG ZHENG 6A
Launch site
Taiyaun Space Center, China (TSC)
Object type
Payload
Rocket body
Debris
Shape & HBR
Box + 1 Pan, 10 m
Radar Cross Section
13.200 m², Large (>1 m²)

Expand to show TLE details & history

TLE from 13 hours ago
0 QIANFAN-64
1 62794U 25016K   25181.87823807  .00000104  00000-0  14260-3 0  9993
2 62794  88.9850 120.0361 0016099  95.1751 265.1238 13.50954640 25005
Epoch: 2025-06-30T21:04Z
TLE epoch observation values (Epoch: 2025-06-30T21:04:39.769Z)
Latitude
0.00001°
Longitude
-115.31133°
Altitude
1,072.74 km
Speed
7.315 km/s
True Right ascension
08h 00m 08s
True Declination
0° 00' 00"
Sunlit
Object was in daylight at epoch
Visualization orbit readout
Latitude
-13.47826°
Longitude
64.87352°
Altitude
1,076.438 km
Speed
7.312 km/s
Apparent Right ascension
17h 21m 45s
Apparent Declination
-55° 24' 40"
Sunlit
Object is in full shadow
Visualization observer readout
Local Sidereal Time
22:06:49
Azimuth
215.691° SW
Elevation
-22.855°
Doppler factor
1
Orbital elements
Apogee altitude
1,077.783 km
Perigee altitude
1,053.815 km
Semi-major axis
7,443.936 km
Eccentricity
0.00161
Inclination
88.985°
RAAN
120.0361°
Arg. of periapsis
95.1751°
True anomaly
Unknown
Mean anomaly
265.1238°
Eccentric anomaly
Unknown
Mean motion
3.3794 °/min
Orbital period
106.53 mins
BSTAR
0.0001426
Loading maneuver chart data...
Loading SW <> Apogee altitude chart data...
Loading historical data...
Loading historical data...
Loading historical data...
Loading historical data...
Loading historical data...
Loading historical data...
Loading historical data...

QIANFAN-64 Visibility forecast

Observer location: undefined°, undefined°

Span
Click to sort rows by Start time (UTC) header in descending order
Start Az.
Max El. time (UTC)
Max El. Az.
Max El.
End time (UTC)
End Az.
4 mins2025-07-01 18:35:22.096Z89.908° E2025-07-01 18:37:22.096Z70.948° E13.034°2025-07-01 18:39:22.096Z51.885° ENE
12 mins2025-07-01 20:17:22.096Z177.215° S2025-07-01 20:23:22.096Z358.875° N44.589°2025-07-01 20:29:22.096Z359.285° N
11 mins2025-07-02 07:27:22.096Z18.842° NNE2025-07-02 07:32:22.096Z84.152° E34.624°2025-07-02 07:38:22.096Z155.135° SSE
9 mins2025-07-02 09:14:22.096Z332.413° NNW2025-07-02 09:18:22.096Z287.146° WNW25.854°2025-07-02 09:23:22.096Z229.848° WSW
|